Weather History for KMKG - December, 2011

Change the Weather History Date:

Saturday, December 31, 2011

  Actual Average Record
Temperature  
Mean Temperature 37 °F 27 °F  
Max Temperature 43 °F 32 °F 58 °F (2010)
Min Temperature 31 °F 22 °F -15 °F (1976)
Degree Days  
Heating Degree Days 28 38  
Month to date heating degree days 883 1080  
Since 1 July heating degree days 2046 2446  
Cooling Degree Days 0 0  
Month to date cooling degree days 0 0  
Year to date cooling degree days 752 566  
Moisture  
Dew Point 32 °F    
Average Humidity 77    
Maximum Humidity 92    
Minimum Humidity 62    
Precipitation  
Precipitation 0.00 in 0.07 in 0.73 in (1981)
Month to date precipitation 2.33 2.55  
Year to date precipitation 41.89 33.49  
Snow  
Snow 0.00 in 1.00 in 6.00 in (1981)
Month to date snowfall 1.8 28.9  
Since 1 July snowfall 1.9 35.1  
Snow Depth 0.00 in    
Sea Level Pressure  
Sea Level Pressure 29.88 in    
Wind  
Wind Speed 7 mph (SW)    
Max Wind Speed 17 mph    
Max Gust Speed 22 mph    
Visibility 9 miles    
Events      
T = Trace of Precipitation, MM = Missing Value Source: NWS Daily Summary

Daily Weather History Graph

Daily Weather History Graph

Search for Another Location

Airport or City:

Trip Planner

Search our weather history database for the weather conditions in past years. The results will help you decide how hot, cold, wet, or windy it might be!

Date:

Astronomy

Dec. 31, 2011 Rise Set
Actual Time 8:16 AM EST 5:19 PM EST
Civil Twilight 7:44 AM EST 5:51 PM EST
Nautical Twilight 7:08 AM EST 6:27 PM EST
Astronomical Twilight 6:33 AM EST 7:02 PM EST
Moon 11:49 AM EST (12/31) 12:04 AM EST (12/31)
Length of Visible Light 10h 07m
Length of Day
9h 02m
Waxing Crescent, 45% of the Moon is Illuminated
Dec 31
Waxing Crescent
Jan 1
First Quarter
Jan 9
Full
Jan 16
Last Quarter
Jan 23
New

Hourly Weather History & Observations

Time (EST) Temp. Windchill Dew Point Humidity Pressure Visibility Wind Dir Wind Speed Gust Speed Precip Events Conditions
12:48 AM 35.6 °F 29.2 °F 33.8 °F 93% 29.72 in 8.0 mi NNW 8.1 mph - N/A   Overcast
12:55 AM 36.0 °F 28.5 °F 33.1 °F 89% 29.73 in 8.0 mi NNW 10.4 mph - N/A   Overcast
1:25 AM 35.6 °F 29.2 °F 33.8 °F 93% 29.73 in 7.0 mi NNW 8.1 mph - N/A   Overcast
1:51 AM 35.6 °F 29.9 °F 33.8 °F 93% 29.75 in 8.0 mi NNW 6.9 mph - N/A   Overcast
1:55 AM 36.0 °F 29.0 °F 33.1 °F 89% 29.77 in 8.0 mi NNW 9.2 mph - N/A   Overcast
2:42 AM 35.6 °F 28.6 °F 33.8 °F 93% 29.78 in 7.0 mi NNW 9.2 mph - N/A   Overcast
2:55 AM 35.6 °F 29.9 °F 33.8 °F 93% 29.79 in 8.0 mi NNW 6.9 mph - N/A   Overcast
3:55 AM 37.0 °F 31.6 °F 32.0 °F 82% 29.83 in 10.0 mi NNW 6.9 mph - N/A   Overcast
4:48 AM 35.6 °F 28.0 °F 32.0 °F 87% 29.84 in 10.0 mi NNW 10.4 mph - N/A   Overcast
4:55 AM 35.1 °F 27.9 °F 32.0 °F 89% 29.86 in 10.0 mi NNW 9.2 mph - N/A   Overcast
5:06 AM 35.6 °F 29.2 °F 30.2 °F 81% 29.85 in 10.0 mi North 8.1 mph - N/A   Overcast
5:55 AM 34.0 °F 29.8 °F 30.0 °F 85% 29.90 in 10.0 mi North 4.6 mph - N/A   Partly Cloudy
6:47 AM 32.0 °F 28.7 °F 28.4 °F 87% 29.90 in 9.0 mi West 3.5 mph - N/A   Mostly Cloudy
6:55 AM 32.0 °F 28.7 °F 30.2 °F 93% 29.90 in 6.0 mi West 3.5 mph - N/A   Mostly Cloudy
7:55 AM 33.1 °F - 30.9 °F 92% 29.94 in 6.0 mi Calm Calm - N/A   Overcast
8:37 AM 30.2 °F 24.3 °F 28.4 °F 93% 29.92 in 5.0 mi East 5.8 mph - N/A   Partly Cloudy
8:55 AM 32.0 °F - 30.0 °F 92% 29.95 in 5.0 mi Calm Calm - N/A   Clear
9:55 AM 37.4 °F - 32.0 °F 81% 29.98 in 10.0 mi Calm Calm - N/A   Clear
10:12 AM 37.4 °F - 32.0 °F 81% 29.98 in 10.0 mi Calm Calm - N/A   Mostly Cloudy
10:55 AM 39.9 °F 35.8 °F 32.0 °F 73% 29.99 in 10.0 mi ESE 5.8 mph - N/A   Scattered Clouds
11:55 AM 42.1 °F 39.2 °F 30.0 °F 62% 29.98 in 10.0 mi SSW 4.6 mph - N/A   Clear
12:25 PM 42.8 °F 37.5 °F 30.2 °F 61% 29.95 in 10.0 mi SW 9.2 mph - N/A   Mostly Cloudy
12:55 PM 42.1 °F 36.1 °F 30.9 °F 65% 29.96 in 10.0 mi SSW 10.4 mph - N/A   Mostly Cloudy
1:55 PM 42.1 °F 36.6 °F 32.0 °F 67% 29.95 in 10.0 mi South 9.2 mph - N/A   Overcast
2:55 PM 41.0 °F 34.7 °F 32.0 °F 70% 29.93 in 10.0 mi South 10.4 mph - N/A   Overcast
3:55 PM 41.0 °F 35.8 °F 33.8 °F 76% 29.93 in 10.0 mi South 8.1 mph - N/A   Overcast
4:33 PM 41.0 °F 33.9 °F 32.0 °F 70% 29.92 in 10.0 mi SSE 12.7 mph - N/A   Scattered Clouds
4:55 PM 39.9 °F 35.1 °F 32.0 °F 73% 29.94 in 10.0 mi South 6.9 mph - N/A   Partly Cloudy
5:55 PM 37.9 °F 34.4 °F 32.0 °F 79% 29.94 in 10.0 mi SSE 4.6 mph - N/A   Clear
6:55 PM 36.0 °F 31.1 °F 32.0 °F 86% 29.92 in 10.0 mi SE 5.8 mph - N/A   Clear
7:55 PM 37.9 °F 30.5 °F 32.0 °F 79% 29.91 in 10.0 mi SSE 11.5 mph - N/A   Clear
8:55 PM 37.4 °F 29.8 °F 30.2 °F 75% 29.87 in 10.0 mi SE 11.5 mph - N/A   Partly Cloudy
9:55 PM 36.0 °F 28.5 °F 30.9 °F 82% 29.86 in 10.0 mi SSE 10.4 mph - N/A   Clear
10:55 PM 35.6 °F 26.6 °F 30.2 °F 81% 29.80 in 10.0 mi SE 13.8 mph 21.9 mph N/A   Mostly Cloudy
11:55 PM 36.0 °F 29.0 °F 32.0 °F 86% 29.82 in 10.0 mi SSE 9.2 mph - N/A   Scattered Clouds